Wind_Speed
14 13 12 11 10 10 8 7 7 10 14 17 17 17 17 18 19 19 18 16 15 13 9 7 6 5 4 9 12 14 17 16 15 16 16 14 13 12 11 10 10 9 8 7
13 12 13 13 12 10 8 7 8 11 15 17 18 18 18 19 20 18 17 14 12 11 9 6 5 3 3 7 11 13 16 17 16 15 14 14 12 12 12 11 11 10 9 8
13 13 15 14 14 11 7 7 10 13 15 17 19 18 18 18 18 16 13 11 11 10 9 6 5 2 2 6 10 12 14 15 16 15 13 13 13 12 13 12 11 10 10 10
14 15 16 15 14 11 9 8 11 13 16 18 18 18 15 16 15 12 9 9 10 9 8 6 5 1 3 6 10 12 14 15 14 14 13 13 14 14 14 13 12 11 11 10
13 16 17 17 14 12 9 10 12 15 17 19 18 18 16 15 12 9 8 8 8 8 7 6 5 1 5 7 9 10 13 14 14 15 14 14 15 14 14 13 13 12 12 11
14 17 18 17 16 14 12 13 14 15 18 19 19 19 17 13 9 8 6 6 7 6 5 4 4 3 5 6 8 9 10 12 14 14 15 15 15 15 14 14 14 14 13 12
16 17 18 18 17 16 15 15 17 17 16 17 19 17 15 12 9 7 5 5 5 5 4 3 2 2 3 5 6 8 9 11 12 14 14 15 15 16 15 14 14 14 13 13
16 16 17 18 18 17 15 17 19 19 17 17 19 18 14 13 9 6 5 4 5 4 3 2 2 2 3 4 6 7 9 11 11 12 14 15 15 15 15 14 14 14 14 13
17 16 17 19 19 18 16 17 18 20 19 20 18 17 14 11 9 7 7 6 4 3 2 2 1 2 2 4 6 7 9 11 11 12 12 13 14 13 14 15 14 15 15 14
21 20 18 19 21 19 18 17 19 21 21 21 19 17 15 9 9 9 8 6 3 2 1 1 1 1 1 3 5 7 8 10 11 12 12 13 13 13 14 15 15 16 16 16
26 26 21 22 23 21 21 20 20 21 23 23 21 18 15 13 12 10 8 6 4 2 1 1 0 1 2 3 5 7 8 9 11 12 12 12 13 13 14 15 16 17 17 17
31 30 28 25 25 25 24 23 23 23 23 23 23 21 17 15 14 11 8 6 4 2 2 1 2 2 2 3 4 7 8 10 11 12 12 12 13 13 14 15 17 18 18 19
34 34 33 29 27 28 28 26 24 24 24 23 22 21 18 17 13 12 10 6 4 4 3 3 3 3 3 4 4 6 9 10 11 12 13 13 14 14 15 16 17 19 19 20
39 38 37 34 31 31 30 29 27 25 25 24 22 21 20 17 16 14 11 8 7 5 5 4 5 6 6 6 6 7 9 10 11 12 13 14 15 15 16 17 19 20 21 22
42 41 40 37 35 34 33 32 30 28 27 26 24 21 20 18 16 15 13 11 9 8 6 6 6 7 8 8 7 7 10 10 12 12 12 14 15 16 17 18 19 21 22 24
41 42 41 40 37 36 35 33 32 30 28 27 26 24 22 20 19 17 14 11 10 9 8 8 9 9 9 9 10 10 11 11 12 13 14 15 17 18 19 20 21 23 24 24
40 41 40 39 39 38 37 35 33 33 32 30 27 24 22 19 18 16 14 13 12 12 11 11 11 11 11 12 13 13 14 14 14 15 16 18 19 20 21 22 22 23 26 27
36 38 39 38 38 40 36 34 34 33 31 29 27 25 21 19 17 16 15 15 14 13 13 13 14 14 14 14 15 16 17 17 17 18 19 20 22 23 24 24 24 26 27 29
31 33 35 37 37 37 35 33 32 30 30 28 26 25 22 19 18 17 16 16 15 14 14 14 15 16 16 16 17 18 19 20 21 22 22 22 24 25 26 26 26 27 28 29
27 29 31 31 33 33 32 31 32 31 30 27 24 21 20 20 19 18 18 16 14 14 15 16 16 18 19 20 20 21 22 23 23 24 25 26 26 28 28 28 29 30 30 31
23 26 27 28 30 30 29 29 31 31 27 25 23 22 21 20 19 19 19 16 15 16 17 18 18 19 20 21 22 22 24 25 26 27 28 29 30 30 31 32 33 33 33 34
19 22 26 27 28 28 27 27 28 28 26 25 24 23 22 20 18 18 18 17 16 17 18 19 20 21 21 22 23 24 25 27 28 29 29 30 31 31 32 34 33 32 33 33
16 19 21 24 26 27 26 25 24 24 24 24 23 22 21 19 18 17 17 17 17 18 19 20 21 21 23 24 25 26 27 28 29 30 31 31 32 32 33 32 33 33 34 34
14 16 19 20 21 23 22 21 22 22 23 20 20 19 19 18 17 16 16 16 16 18 19 20 21 22 23 24 25 27 28 29 30 31 31 32 32 33 34 34 35 35 35 35
10 12 15 17 17 18 19 18 18 18 19 19 20 19 19 19 17 17 16 16 17 18 19 20 21 23 24 25 27 28 29 30 31 32 33 34 34 35 35 36 36 36 37 38
8 9 11 12 13 13 14 14 16 17 17 17 18 17 16 16 15 16 17 17 18 19 20 21 22 24 25 26 28 29 30 31 32 33 34 34 34 35 36 36 37 38 38 38
Wind_Direction
251 245 240 237 234 236 245 260 296 312 314 312 313 317 322 324 328 329 330 326 328 334 336 323 316 291 251 215 205 201 196 199 204 205 207 210 212 212 208 205 197 196 198 193
245 237 231 232 229 233 251 280 296 301 303 305 307 311 313 320 324 324 326 333 337 337 343 333 331 295 254 209 200 199 201 202 202 202 200 201 201 196 196 191 187 189 190 184
237 228 230 229 226 228 245 282 298 306 304 303 304 304 311 319 320 322 327 339 343 342 339 337 342 328 210 186 189 188 192 192 194 193 190 189 190 189 188 187 185 189 187 181
235 233 234 230 229 236 250 269 286 294 297 299 299 303 309 316 317 320 329 344 347 349 347 348 346 333 173 177 185 186 188 188 188 189 188 186 188 188 190 188 188 187 185 183
237 236 236 232 228 237 251 266 279 285 290 293 297 302 306 314 319 323 331 348 354 352 359 8 9 81 149 160 171 177 181 186 188 189 190 189 189 189 190 191 191 189 188 189
239 239 239 235 229 231 246 260 269 277 284 290 300 304 308 314 315 326 334 349 3 7 13 29 45 104 132 149 159 166 172 181 187 191 192 191 190 190 190 192 194 195 196 195
238 236 240 239 234 231 238 255 266 272 278 291 301 304 312 305 303 313 336 1 12 22 31 48 66 110 139 149 162 171 175 179 183 186 188 190 191 192 194 197 199 201 202 201
244 234 235 237 238 237 242 251 261 272 280 291 300 306 308 304 307 313 325 351 7 31 48 64 73 132 155 169 175 180 182 182 185 191 194 194 195 197 200 202 204 206 206 206
251 235 229 231 231 236 243 254 260 267 275 285 294 306 305 303 311 309 326 340 351 28 51 64 85 118 160 185 187 184 185 188 189 192 194 198 201 203 204 206 208 210 211 212
253 244 228 234 236 238 245 252 256 261 268 278 286 296 306 312 316 317 317 331 327 9 43 63 83 131 185 196 201 199 194 195 196 197 200 204 207 210 212 212 213 215 217 218
249 249 235 234 236 239 240 245 254 261 265 276 282 289 301 304 307 315 316 309 288 311 342 269 237 218 202 200 206 205 203 205 205 204 207 212 214 217 220 220 220 221 223 225
244 248 246 239 237 239 244 245 253 258 262 269 276 283 288 295 299 303 302 296 281 309 332 311 269 251 234 211 208 212 216 216 218 217 219 221 221 227 227 225 226 227 229 231
242 246 248 243 238 239 242 247 254 258 263 269 276 281 280 285 287 295 291 276 269 281 287 305 289 283 264 246 237 228 229 230 232 230 229 230 234 235 232 233 234 234 236 238
243 245 246 245 242 241 241 245 252 257 260 267 272 274 274 276 282 285 278 272 265 270 272 276 273 271 267 263 251 241 239 239 240 235 234 238 240 238 238 239 240 242 242 243
244 245 245 246 246 243 242 244 249 255 259 261 267 269 269 273 277 277 271 268 271 264 259 261 259 262 265 265 261 266 252 250 246 242 244 244 245 246 247 247 246 246 249 249
245 246 245 244 245 244 244 245 248 252 256 258 263 264 266 272 274 276 267 264 267 265 260 258 256 254 258 261 263 267 267 265 258 253 253 253 254 255 256 254 254 253 252 253
243 245 246 244 243 245 243 244 246 249 253 257 259 263 267 269 272 273 265 268 263 262 259 256 257 257 257 259 261 262 264 266 265 264 265 264 264 265 262 261 262 261 258 257
244 245 246 243 241 241 240 240 242 247 251 255 257 258 264 266 271 268 262 268 261 262 261 258 257 258 261 262 261 265 266 264 263 263 266 265 264 265 264 262 262 263 262 262
245 245 244 242 241 241 238 238 239 244 249 252 254 254 256 259 264 260 256 263 264 263 262 257 257 260 263 265 265 266 267 267 267 267 267 269 269 268 269 267 268 269 268 267
245 243 243 241 239 241 238 238 240 245 249 248 248 250 253 257 260 261 256 255 257 261 262 262 262 263 265 266 267 267 268 270 272 274 272 274 274 274 274 272 273 272 271 271
241 239 240 240 241 241 242 239 240 243 246 246 247 248 252 257 260 260 261 259 257 261 262 263 263 264 266 268 269 269 271 271 273 274 276 276 277 279 277 276 275 274 274 274
239 236 236 237 240 240 240 237 238 240 241 242 244 245 246 253 258 258 258 256 257 262 264 264 267 268 268 269 271 272 273 273 272 274 277 278 280 280 281 281 279 276 278 279
239 235 235 239 239 237 235 233 233 236 237 239 241 244 243 248 257 259 260 259 261 263 266 267 269 270 271 272 273 273 274 275 276 277 278 280 281 281 283 284 283 281 280 282
242 237 235 236 235 233 230 228 230 235 237 238 238 237 240 245 255 257 259 262 263 263 265 267 269 272 274 275 275 276 277 278 279 279 280 282 282 283 283 283 283 282 282 283
245 228 228 228 233 230 228 228 228 235 237 243 243 241 242 247 250 256 261 261 262 264 267 269 270 272 274 275 276 277 278 279 279 280 281 281 281 283 284 282 282 282 283 283
240 230 229 231 229 224 220 222 227 233 239 242 242 238 241 246 248 254 258 261 264 267 270 271 273 275 276 277 279 280 280 281 281 281 282 282 282 282 282 283 283 283 283 283
Height
5875 5877 5877 5877 5877 5877 5877 5876 5876 5876 5874 5872 5870 5868 5866 5864 5862 5859 5856 5853 5849 5845 5843 5840 5838 5837 5836 5837 5840 5843 5846 5851 5855 5859 5863 5866 5868 5870 5872 5874 5876 5877 5878 5879
5873 5874 5874 5873 5873 5874 5874 5873 5873 5873 5872 5870 5868 5866 5864 5862 5860 5857 5854 5851 5847 5844 5842 5839 5837 5836 5835 5835 5838 5842 5846 5850 5854 5858 5861 5864 5866 5868 5870 5872 5874 5876 5877 5878
5868 5870 5869 5869 5870 5870 5870 5871 5871 5871 5869 5868 5866 5864 5863 5861 5858 5855 5853 5849 5846 5843 5841 5838 5836 5835 5834 5835 5838 5841 5845 5848 5852 5856 5859 5861 5864 5866 5869 5871 5873 5874 5876 5877
5864 5865 5865 5866 5866 5867 5867 5868 5868 5868 5867 5865 5864 5862 5862 5859 5856 5854 5851 5848 5845 5841 5839 5837 5835 5834 5834 5835 5837 5840 5844 5848 5851 5854 5857 5859 5862 5864 5867 5869 5871 5873 5874 5876
5861 5861 5861 5862 5863 5863 5864 5865 5865 5865 5864 5863 5861 5860 5860 5857 5854 5852 5849 5847 5844 5841 5838 5836 5834 5834 5834 5835 5837 5840 5843 5846 5849 5852 5855 5858 5860 5862 5865 5868 5870 5872 5873 5874
5856 5856 5857 5858 5859 5859 5860 5861 5861 5861 5861 5860 5859 5857 5855 5853 5852 5849 5848 5845 5842 5840 5838 5836 5835 5836 5836 5836 5838 5840 5842 5845 5848 5850 5853 5856 5858 5861 5863 5866 5868 5870 5871 5872
5851 5852 5853 5854 5855 5856 5856 5857 5858 5857 5857 5856 5855 5853 5853 5851 5849 5848 5846 5844 5842 5839 5838 5837 5836 5837 5837 5837 5839 5840 5842 5844 5846 5849 5852 5854 5856 5859 5861 5863 5866 5867 5869 5870
5846 5849 5850 5850 5851 5853 5853 5854 5854 5854 5853 5853 5851 5850 5850 5848 5847 5845 5844 5843 5840 5838 5837 5837 5837 5836 5837 5838 5839 5840 5842 5844 5846 5848 5850 5852 5855 5857 5859 5861 5863 5865 5866 5868
5841 5844 5845 5846 5847 5848 5849 5850 5850 5850 5849 5849 5848 5847 5847 5846 5845 5843 5842 5840 5839 5837 5837 5837 5837 5837 5837 5838 5839 5840 5841 5843 5845 5847 5849 5851 5853 5855 5857 5859 5860 5862 5864 5865
5834 5836 5840 5841 5842 5843 5844 5845 5845 5846 5845 5844 5844 5844 5845 5843 5842 5841 5839 5838 5837 5837 5836 5836 5836 5836 5837 5837 5838 5839 5841 5842 5844 5846 5847 5849 5851 5853 5855 5856 5858 5859 5860 5862
5827 5829 5833 5835 5836 5838 5839 5840 5840 5840 5841 5841 5840 5843 5842 5841 5840 5839 5837 5836 5836 5836 5836 5835 5835 5836 5836 5836 5836 5838 5839 5840 5842 5843 5845 5847 5848 5850 5851 5853 5855 5856 5857 5858
5820 5822 5824 5828 5831 5833 5834 5834 5836 5836 5837 5837 5837 5840 5838 5837 5836 5836 5835 5834 5834 5834 5834 5833 5833 5834 5835 5835 5835 5836 5837 5838 5840 5841 5842 5844 5845 5847 5848 5850 5851 5852 5853 5854
5814 5815 5817 5821 5826 5827 5827 5829 5830 5831 5832 5832 5832 5836 5833 5833 5833 5832 5832 5832 5832 5832 5832 5832 5832 5832 5833 5833 5834 5834 5835 5836 5837 5838 5839 5841 5842 5843 5845 5846 5847 5848 5849 5850
5806 5808 5811 5813 5817 5819 5820 5822 5823 5825 5825 5826 5827 5829 5829 5829 5829 5829 5829 5828 5829 5829 5829 5830 5830 5830 5830 5831 5831 5832 5833 5833 5833 5834 5836 5837 5838 5839 5840 5841 5842 5843 5844 5845
5798 5800 5802 5805 5808 5811 5814 5816 5817 5819 5820 5821 5822 5823 5824 5825 5825 5825 5825 5825 5826 5826 5827 5827 5828 5828 5828 5828 5828 5829 5830 5830 5831 5831 5832 5834 5834 5835 5836 5836 5837 5837 5838 5839
5789 5791 5794 5797 5800 5803 5806 5809 5811 5813 5814 5815 5816 5818 5818 5820 5820 5821 5821 5821 5821 5822 5823 5824 5824 5825 5825 5825 5826 5826 5826 5827 5828 5828 5829 5830 5830 5830 5830 5830 5830 5831 5831 5831
5780 5782 5785 5788 5792 5795 5798 5802 5804 5806 5808 5809 5811 5813 5813 5815 5815 5815 5816 5817 5817 5818 5819 5820 5820 5821 5822 5822 5823 5823 5823 5824 5824 5824 5825 5825 5824 5824 5824 5824 5824 5824 5823 5823
5772 5774 5776 5779 5784 5786 5793 5795 5797 5799 5801 5803 5805 5807 5808 5809 5809 5809 5810 5811 5811 5812 5814 5815 5816 5817 5818 5818 5818 5818 5819 5819 5819 5819 5819 5818 5818 5818 5817 5817 5817 5816 5814 5814
5763 5766 5768 5771 5773 5777 5783 5786 5789 5792 5794 5796 5798 5800 5802 5803 5804 5803 5804 5806 5807 5808 5809 5809 5811 5812 5812 5812 5813 5812 5812 5812 5812 5811 5811 5810 5810 5809 5808 5808 5808 5806 5805 5805
5756 5758 5761 5762 5765 5767 5776 5780 5782 5786 5787 5790 5791 5793 5796 5798 5799 5799 5799 5800 5802 5803 5804 5804 5805 5806 5806 5806 5806 5805 5805 5805 5805 5804 5803 5802 5802 5801 5799 5799 5798 5797 5796 5795
5749 5751 5753 5756 5758 5761 5767 5771 5775 5779 5782 5784 5785 5788 5790 5792 5793 5794 5794 5795 5796 5798 5798 5799 5799 5800 5799 5799 5798 5798 5798 5798 5797 5796 5796 5795 5794 5792 5791 5790 5788 5786 5786 5785
5744 5746 5748 5750 5753 5758 5760 5763 5767 5771 5774 5776 5779 5781 5782 5784 5786 5788 5788 5789 5790 5791 5792 5793 5793 5793 5793 5793 5792 5792 5791 5790 5789 5788 5787 5786 5785 5783 5782 5780 5777 5776 5776 5775
5739 5741 5743 5746 5749 5750 5753 5756 5760 5763 5767 5770 5772 5774 5776 5779 5781 5782 5783 5784 5784 5785 5786 5786 5786 5786 5786 5786 5785 5784 5784 5782 5781 5780 5778 5777 5776 5775 5773 5770 5768 5766 5765 5764
5735 5736 5738 5740 5742 5745 5748 5751 5754 5757 5760 5763 5765 5768 5771 5773 5775 5776 5777 5778 5779 5779 5780 5780 5780 5779 5779 5778 5777 5776 5775 5774 5773 5771 5770 5768 5767 5765 5763 5761 5759 5757 5755 5753
5731 5733 5734 5736 5738 5741 5743 5746 5749 5752 5755 5758 5760 5762 5765 5768 5769 5770 5772 5772 5773 5773 5773 5773 5773 5772 5772 5771 5770 5768 5767 5765 5764 5762 5760 5758 5757 5755 5753 5751 5749 5747 5745 5743
5729 5730 5731 5733 5735 5737 5739 5742 5745 5748 5749 5752 5754 5756 5758 5761 5763 5764 5766 5766 5766 5767 5767 5766 5765 5765 5764 5763 5761 5760 5758 5756 5754 5752 5750 5748 5746 5744 5742 5740 5738 5736 5734 5732